STARLINK-33720, 63468

Orbit data source: Space-Track

STARLINK-33720, 63468 is a payload satellite owned by SpaceX/Seattle (US) in LEO that was launched on Sun, 06 Apr 2025 UTC via an FALCON 9 launch vehicle from the Air Force Eastern Test Range (AFETR). Payload-class satellites include a variety of spacecraft equipped with specific instruments for various scientific and technological missions. These include communications satellites like Starlink; space stations such as the ISS; scientific satellites like the Hubble; Earth observation satellites from companies like Planet Labs, Umbra, and HawkEye 360; GPS; miniature CubeSats for education and research; and military/defense satellites.

Loading next visibility...
Identifier
63468, 2025-070J
Orbit
LEO
Country
Flag of USUS
Related business
Manufacturer
SpaceX/Seattle
Mission
Operational Commercial Communications
Bus & Motor
STARLINK V2MO, Unknown motor
Mass
575 kg wet, ~530 kg dry
Launch date (UTC)
2025-04-06 (1 year ago)
Launch vehicle
FALCON 9
Launch site
Air Force Eastern Test Range (AFETR)
Object type
Payload
Rocket body
Debris
Shape & HBR
Box + 2 Pan, 17.7 m
Radar Cross Section
36.964 m², Large (>1 m²)

Expand to show TLE details & history
Last TLE update: 6 hours ago

TLE from 6 hours ago
0 STARLINK-33720
1 63468U 25070J   26169.95953812  .00006600  00000-0  24924-3 0  9993
2 63468  43.0014  47.9441 0001047 257.3896 102.6839 15.27567394 68464
Epoch: 2026-06-18T23:01Z
TLE epoch observation values (Epoch: 2026-06-18T23:01:44.093Z)
Latitude
0.00001°
Longitude
155.315°
Altitude
483.02 km
Speed
7.626 km/s
True Right ascension
03h 11m 46s
True Declination
0° 00' 00"
Sunlit
Object was in daylight at epoch
Visualization orbit readout
Latitude
Unknown
Longitude
Unknown
Altitude
Unknown
Speed
Unknown
Apparent Right ascension
Unknown
Apparent Declination
Unknown
Sunlit
N/A
Visualization observer readout
Local Sidereal Time
15:37:10
Azimuth
Unknown
Elevation
Unknown
Doppler factor
Unknown
Orbital elements
Apogee altitude
485.75 km
Perigee altitude
484.313 km
Semi-major axis
6,863.169 km
Eccentricity
0.0001
Inclination
43.0014°
RAAN
47.9441°
Arg. of periapsis
257.3896°
True anomaly
102.6956°
Mean anomaly
102.6839°
Eccentric anomaly
102.68975°
Mean motion
3.8173 °/min
Orbital period
94.31 mins
BSTAR
0.00024924
Loading maneuver chart data...
Computing Atmospheric mass density...
Loading historical data...
Loading historical data...
Loading historical data...
Loading historical data...
Loading historical data...
Loading historical data...
Loading historical data...

Documentation

Showing up to 5 results
|